Dewpoint
49 53 54 53 53 55 58 57 54 56 56 53 50 49 47 46 46 44 45 46 45 44 44 43 43 43 41 41 42 40 37 37 37 33 33 32 32 31 30 29 29 28 29
46 52 52 53 53 56 58 56 54 56 55 51 50 48 45 45 45 45 45 44 44 43 40 40 36 38 39 40 39 38 37 39 37 33 32 29 30 30 28 28 28 26 27
43 49 52 52 54 57 57 56 55 55 56 52 49 46 46 46 45 44 44 36 32 31 35 35 35 35 36 35 36 39 38 36 36 34 32 28 27 28 28 26 26 26 27
43 46 51 52 54 57 57 57 56 56 56 51 48 44 42 42 44 42 34 30 32 34 35 35 36 36 38 36 38 40 38 36 34 34 32 30 29 24 22 25 25 26 25
43 44 52 52 54 57 57 56 56 55 52 48 48 44 44 42 38 34 30 31 33 35 34 35 37 37 40 40 39 39 37 36 35 33 32 30 28 25 23 22 23 25 25
46 50 53 53 54 57 58 57 49 48 47 46 45 44 38 34 31 30 30 31 33 35 33 35 36 37 40 39 39 39 38 37 36 35 33 30 26 25 24 23 23 22 24
49 52 54 54 56 57 52 47 45 46 47 43 41 36 32 30 29 29 31 31 31 32 30 33 34 36 40 39 39 39 38 37 36 35 33 31 30 29 27 25 23 22 23
50 52 54 55 55 53 47 45 45 42 41 40 39 37 31 31 32 32 32 32 32 31 33 33 34 35 38 38 38 38 36 37 37 35 35 32 30 30 27 25 23 22 22
52 53 53 54 52 47 44 47 45 39 39 40 39 38 34 34 34 32 32 32 32 31 33 32 33 33 33 37 38 37 36 36 35 32 32 30 30 29 29 27 26 24 20
51 53 52 50 49 44 43 44 43 39 42 42 39 39 36 35 34 33 32 33 33 32 32 32 32 32 32 32 34 34 33 31 33 33 31 30 32 32 30 26 27 25 23
50 51 50 48 46 43 42 43 41 39 40 42 39 36 34 35 33 32 33 33 32 32 32 32 31 32 31 32 31 31 30 32 32 31 30 30 31 28 27 25 24 21 20
49 49 49 47 45 44 43 43 41 40 38 34 34 35 37 36 34 33 33 34 32 32 31 30 31 32 33 33 31 31 31 31 31 31 31 30 28 25 24 22 19 18 18
45 45 46 46 45 45 44 42 41 36 34 34 37 36 37 36 33 33 33 33 32 32 31 30 31 32 34 33 32 31 32 31 31 32 30 29 27 21 22 19 18 18 18
43 41 43 45 45 45 45 43 40 38 37 34 35 36 36 34 35 33 33 32 32 30 30 31 32 34 34 31 31 30 29 28 27 27 26 24 22 19 18 17 16 17 18
40 39 40 39 42 43 44 44 40 39 37 36 36 37 36 36 36 34 32 32 32 31 31 31 33 34 33 32 31 29 28 26 25 25 23 22 23 26 21 17 19 19 19
32 36 38 41 42 43 43 44 41 40 37 36 35 36 38 35 35 34 33 32 33 33 32 32 33 33 31 33 34 30 25 24 23 23 23 20 22 25 26 24 22 20 18
35 37 42 42 43 44 44 44 43 40 36 34 34 37 35 34 35 33 32 33 34 34 33 33 33 32 32 34 34 31 23 22 22 24 21 20 22 22 19 20 19 18 19
34 35 35 42 43 44 44 44 40 36 34 34 34 34 35 34 34 34 34 35 34 31 31 30 31 32 31 34 32 28 22 22 24 23 22 21 20 20 19 18 18 18 18
36 33 33 34 39 42 41 36 33 31 32 33 35 34 35 33 34 34 35 34 33 32 30 30 31 31 30 33 31 25 21 24 24 24 23 22 21 22 23 19 19 18 18
31 32 32 31 31 33 33 31 32 33 34 34 33 34 34 34 35 36 36 35 31 30 31 30 29 31 30 32 30 25 25 24 25 24 23 24 20 24 22 21 20 18 17
32 32 32 32 31 32 34 34 34 34 35 36 36 37 37 38 38 36 33 31 30 30 30 30 30 29 28 29 30 29 24 24 24 24 23 23 24 23 23 24 22 20 20
33 34 33 33 34 34 34 33 34 35 36 36 38 39 38 37 33 30 30 29 29 29 29 29 29 27 27 29 30 30 27 25 23 24 23 23 25 25 26 24 25 26 25
34 34 34 34 35 34 33 33 34 36 37 37 38 38 34 33 32 30 30 29 29 27 27 27 25 26 28 27 30 31 29 28 23 23 23 24 25 26 25 26 26 23 21
33 32 32 31 32 34 34 34 34 33 33 32 32 32 32 32 32 31 31 29 27 26 28 27 26 26 27 28 27 27 29 28 25 22 23 22 24 20 21 21 23 22 21
33 32 32 32 32 32 32 32 32 31 30 30 31 31 29 30 30 30 30 29 29 28 27 27 26 24 24 28 31 29 26 26 25 19 15 16 18 20 21 20 20 20 19
34 33 32 32 31 31 29 30 31 30 30 30 30 28 28 27 29 29 30 31 31 31 31 31 28 27 30 31 31 32 31 29 26 22 16 18 17 18 19 17 17 17 16
Lifted_Index
-2 -2 -2 -2 -2 -2 -2 -3 -3 -3 -2 -0 1 1 2 3 4 6 7 7 7 7 7 7 7 8 9 9 9 9 9 10 9 9 9 9 9 10 10 11 11 11 11
-2 -2 -2 -2 -2 -2 -2 -3 -3 -3 -1 -0 1 2 3 4 5 6 7 7 6 6 7 7 8 9 10 10 10 10 10 9 9 9 9 9 10 10 11 11 12 12 12
-1 -2 -2 -2 -2 -2 -3 -3 -3 -2 -1 -0 1 2 3 4 5 6 6 6 6 6 7 8 10 11 12 12 11 10 10 9 9 9 9 9 10 10 11 12 12 12 13
-1 -1 -2 -2 -2 -3 -3 -3 -3 -2 -1 -1 0 1 2 3 4 5 5 6 6 7 8 10 12 12 12 12 11 10 10 9 9 9 9 9 10 10 11 12 12 13 13
-1 -1 -1 -2 -2 -3 -3 -3 -3 -2 -1 -1 -1 0 1 2 3 4 5 5 6 8 10 12 12 12 11 11 10 10 10 10 10 9 10 10 10 11 11 12 12 13 13
-2 -2 -2 -2 -2 -3 -3 -3 -3 -2 -2 -1 -1 0 1 2 3 4 5 5 6 8 11 12 13 12 11 10 10 10 10 10 11 11 11 11 11 11 12 12 12 13 13
-2 -2 -2 -2 -3 -3 -3 -3 -3 -3 -2 -1 -0 1 2 3 4 4 5 6 7 9 12 13 13 12 11 10 10 10 11 11 11 11 11 11 11 12 12 12 12 12 13
-3 -3 -3 -3 -3 -3 -3 -3 -3 -3 -2 -1 0 2 3 3 4 5 5 6 8 10 12 13 13 13 12 11 11 11 11 11 11 11 11 11 11 11 12 12 12 12 12
-3 -3 -3 -3 -3 -3 -3 -3 -3 -3 -2 -1 1 2 3 4 4 5 6 7 9 11 12 13 13 13 13 12 12 11 11 11 11 11 11 11 11 11 11 11 12 12 12
-3 -3 -3 -4 -4 -3 -3 -3 -3 -2 -2 -1 0 2 3 4 4 5 6 8 10 11 12 13 13 13 13 13 12 12 12 12 12 12 11 11 11 11 11 11 11 12 12
-3 -3 -4 -4 -4 -3 -3 -3 -3 -2 -2 -1 -0 1 2 3 4 5 7 8 10 11 12 13 13 13 13 12 12 12 12 12 11 11 11 11 11 11 11 11 11 11 11
-3 -3 -3 -3 -3 -3 -3 -3 -3 -2 -2 -1 0 1 2 3 4 6 7 9 9 11 12 12 13 13 12 12 11 11 11 11 11 11 11 11 11 11 11 11 11 11 10
-3 -3 -3 -3 -3 -2 -2 -2 -2 -1 -0 0 1 2 2 4 5 6 8 9 10 10 11 12 12 13 12 12 11 11 11 11 11 10 10 11 11 11 11 11 10 10 10
-2 -2 -2 -2 -1 -1 -1 -1 -0 0 1 1 2 2 3 5 6 7 8 9 10 11 11 12 12 12 12 11 11 10 10 10 10 10 10 10 11 11 11 10 10 9 9
-1 -1 -1 -0 -0 -0 -0 -0 0 1 1 1 2 3 4 6 7 8 9 10 11 11 11 11 11 11 11 11 10 10 9 9 9 9 9 10 10 10 9 9 9 9 9
1 1 1 1 0 0 0 0 0 1 1 1 2 3 5 7 8 9 9 10 10 11 11 11 11 10 10 10 9 9 8 8 8 8 8 9 9 9 9 9 8 9 9
3 2 2 2 1 1 1 1 1 1 1 1 2 4 6 7 9 9 10 10 10 10 10 10 10 10 9 9 8 8 7 7 7 7 8 8 8 8 8 8 8 8 9
3 3 3 2 2 2 1 1 1 1 1 1 3 5 7 8 9 9 10 9 9 9 10 10 10 9 8 8 7 7 6 6 6 7 7 8 8 8 8 8 8 9 9
3 3 3 4 3 3 2 1 1 1 1 2 4 6 8 9 9 9 9 8 9 10 10 9 9 9 8 7 6 6 5 6 6 7 7 8 8 8 8 8 8 9 9
3 3 4 4 4 3 2 2 1 1 2 4 6 8 9 9 9 9 8 8 9 10 10 9 9 8 7 6 5 5 5 6 6 7 7 8 8 8 8 8 8 9 9
4 3 3 4 4 3 3 2 2 3 4 7 8 9 9 9 8 8 9 9 10 10 9 9 8 7 6 5 5 5 5 6 6 7 7 7 7 7 8 8 8 8 9
4 4 3 4 4 4 4 3 4 5 6 7 8 8 8 8 8 9 10 10 10 10 9 8 7 6 5 5 5 5 5 6 6 6 6 7 7 7 7 8 8 8 8
4 4 4 5 5 6 6 6 6 7 8 8 8 8 8 9 10 11 11 11 10 9 8 7 7 6 5 5 5 5 5 5 5 5 5 6 6 7 7 8 8 8 8
5 5 6 6 7 8 8 8 9 9 9 9 9 10 10 11 12 12 11 10 9 7 7 6 6 6 6 5 5 5 5 5 4 4 5 5 5 6 6 7 7 7 7
6 7 7 7 8 9 10 10 11 12 12 11 11 12 12 12 12 11 10 9 7 7 6 6 6 6 6 6 6 5 5 4 4 4 4 4 4 5 6 6 7 7 7
7 7 8 8 9 10 11 12 13 13 13 12 12 12 12 12 12 11 9 8 7 6 5 5 5 5 6 6 6 5 5 4 4 4 4 4 4 5 5 6 6 7 7